Location: Boussac
(44.2782°N, 2.3665°E)
Time: 07:28:28
(UTC+00:00)

Cosmos 2058 Rocket - Pass Details

Date: 15 May 2026
Orbit: 604 x 632 km, 82.5° (Epoch: 6 June)

Event Time Altitude Azimuth Distance (km) Brightness Sun altitude
Exits shadow 22:30:59 72° 269° (W) 641 3.0 -24.3°
Maximum altitude 22:31:04 73° 279° (W) 640 3.1 -24.3°
Drops below altitude 10° 22:35:24 10° 5° (N) 1,963 6.5 -24.6°
Sets 22:37:38 0° 7° (N) 2,870 7.5 -24.7°
